KRBO

Details ICAO KRBO
Name NUECES CO
Region United States
Timezone America/Chicago (UTC-5.0)
Plans Departing 1
Arriving 2
Stats Elevation 79 ft / 24 m (AMSL)
Location 27.778544° -97.690525°
Runways 1
Magnetic Variation 3.783° E
Sunrise 2018-05-26 11:38:05 UTC / 2018-05-26 06:38:05 Local
Sunset 2018-05-27 01:20:28 UTC / 2018-05-26 20:20:28 Local
Advertisement - Login to hide

Runways

ID Width Length Bearing (true) Bearing (mag) Surface Threshold Offset Overrun Length
13 75 ft / 23 m 3,704 ft / 1,129 m 135.09° 131.31° Asphalt 0 ft / 0 m 0 ft / 0 m
31 75 ft / 23 m 3,704 ft / 1,129 m 315.09° 311.31° Asphalt 0 ft / 0 m 0 ft / 0 m

Map

Weather


0- 5 10 15 20 25 30 35+ Temperature / ° C

Clouds and Precipitation
Forecast for 2018-05-26 12:00 UTC. Updated 5 hours ago

Ground ~20,000 ft ~40,000 ft Winds

METAR

KRBO 261635Z AUTO 16004KT 10SM CLR 30/23 A2987 RMK AO2 T02980229

TAF

Not found

Frequencies

Recorded 118.17 MHz AWOS 3
Approach 119.90 MHz KINGSVILLE APP
Unicom 122.90 MHz CTAF
Departure 120.90 MHz CORPUS DEP
Warning: Do not use this data for real-world aviation or navigation. No guarantee of current accuracy is given.